Tracking 30995 objects as of 5-Jul-2025
HD Live streaming from Space Station
objects crossing your sky now

STARLINK-30844

Track STARLINK-30844 now!
10-day predictions
STARLINK-30844 is classified as:


NORAD ID: 58403
Int'l Code: 2023-180B
Perigee: 565.3 km
Apogee: 567.2 km
Inclination: 43.0 °
Period: 95.8 minutes
Semi major axis: 6937 km
RCS: Unknown
Launch date: November 22, 2023
Source: United States (US)
Launch site: AIR FORCE EASTERN TEST RANGE (AFETR)
Your satellite tracking list
Your tracking list is empty




NASA's NSSDC Master Catalog

Two Line Element Set (TLE):
1 58403U 23180B   25185.75107898  .00000624  00000-0  61290-4 0  9994
2 58403  43.0040 323.6943 0001368 267.5837  92.4848 15.02534807 90176
Source of the keplerian elements: AFSPC